Location: Unspecified
(0.0000°N, 0.0000°E)
Time: 23:56:42
(UTC+00:00)

Courier 1B - All Passes

Search period start: 04 August 2015 00:00
Search period end: 14 August 2015 00:00
Orbit: 963 x 1209 km, 28.3° (Epoch: 04 August)

Date Brightness Start Highest point End Pass type
(mag) Time Alt. Az. Time Alt. Az. Time Alt. Az.
04 Aug - 01:54:41 10° WSW 01:59:38 19° SSW 02:04:33 10° SSE night (unlit)
04 Aug - 07:45:47 10° S 07:49:13 13° SSE 07:52:50 10° SE daylight
04 Aug - 09:37:33 10° SW 09:44:34 39° SSE 09:51:17 10° E daylight
04 Aug - 11:31:35 10° WSW 11:39:00 66° NNW 11:45:54 10° NE daylight
04 Aug - 13:28:36 10° WNW 13:33:28 19° NNW 13:37:58 10° NNE daylight
04 Aug - 21:11:03 10° NNW 21:16:39 30° NNE 21:22:36 10° E visible
04 Aug - 23:04:04 10° WNW 23:10:51 78° SSW 23:18:08 10° SE night (unlit)
05 Aug - 00:59:50 10° WSW 01:05:28 24° SSW 01:11:14 10° SSE night (unlit)
05 Aug - 06:53:45 10° S 06:54:49 10° SSE 06:56:09 10° SSE daylight
05 Aug - 08:43:59 10° SSW 08:50:29 29° SSE 08:56:52 10° E daylight
05 Aug - 10:37:27 10° WSW 10:45:07 89° NNW 10:52:18 10° ENE daylight
05 Aug - 12:33:30 10° W 12:39:29 27° NNW 12:45:05 10° NNE daylight
05 Aug - 20:18:03 10° NNW 20:22:46 21° NNE 20:27:45 10° ENE visible
05 Aug - 22:10:24 10° NW 22:17:03 77° NNE 22:24:09 10° ESE visible
06 Aug - 00:05:20 10° W 00:11:25 32° SSW 00:17:46 10° SSE night (unlit)
06 Aug - 02:04:57 10° SSW 02:06:51 11° SSW 02:08:32 10° S night (unlit)
06 Aug - 07:50:34 10° SSW 07:56:19 22° SSE 08:02:07 10° ESE daylight
06 Aug - 09:43:30 10° SW 09:51:12 68° SSE 09:58:29 10° ENE daylight
06 Aug - 11:38:44 10° W 11:45:33 37° NNW 11:51:56 10° NE daylight
06 Aug - 13:38:43 10° NW 13:40:31 11° NNW 13:42:00 10° N daylight
06 Aug - 19:25:22 10° N 19:28:49 15° NNE 19:32:31 10° ENE visible
06 Aug - 21:16:55 10° NW 21:23:18 54° NNE 21:30:01 10° ESE visible
06 Aug - 23:11:07 10° W 23:17:29 43° SSW 23:24:12 10° SE night (unlit)
07 Aug - 01:08:55 10° SW 01:12:33 14° SSW 01:16:04 10° S night (unlit)
07 Aug - 06:57:21 10° SSW 07:02:04 17° SSE 07:06:58 10° ESE daylight
07 Aug - 08:49:41 10° SW 08:57:12 50° SSE 09:04:27 10° ENE daylight
07 Aug - 10:44:13 10° WSW 10:51:38 52° NNW 10:58:36 10° NE daylight
07 Aug - 12:42:11 10° WNW 12:46:22 16° NNW 12:50:12 10° N daylight
07 Aug - 18:33:38 10° N 18:34:46 11° NNE 18:36:10 10° NNE visible
07 Aug - 20:23:36 10° NW 20:29:32 38° NNE 20:35:43 10° E visible
07 Aug - 22:17:07 10° WNW 22:23:38 59° SSW 22:30:32 10° SE visible
08 Aug - 00:13:43 10° WSW 00:18:23 18° SSW 00:23:01 10° SSE night (unlit)
08 Aug - 06:04:29 10° S 06:07:44 13° SSE 06:11:14 10° SE daylight
08 Aug - 07:56:02 10° SW 08:03:09 37° SSE 08:10:09 10° E daylight
08 Aug - 09:49:56 10° WSW 09:57:42 71° NNW 10:05:04 10° NE daylight
08 Aug - 11:46:43 10° WNW 11:52:18 22° NNW 11:57:28 10° NNE daylight
08 Aug - 19:30:25 10° NNW 19:35:43 27° NNE 19:41:12 10° E visible
08 Aug - 21:23:20 10° WNW 21:29:52 82° SSW 21:36:44 10° ESE visible
08 Aug - 23:18:57 10° WSW 23:24:18 24° SSW 23:29:46 10° SSE night (unlit)
09 Aug - 07:02:32 10° SSW 07:09:01 28° SSE 07:15:34 10° E daylight
09 Aug - 08:55:52 10° WSW 09:03:45 86° SSE 09:11:20 10° ENE daylight
09 Aug - 10:51:42 10° W 10:58:16 30° NNW 11:04:25 10° NNE daylight
09 Aug - 18:37:26 10° NNW 18:41:50 19° NNE 18:46:25 10° ENE visible
09 Aug - 20:29:42 10° NW 20:36:08 71° NNE 20:42:50 10° ESE visible
09 Aug - 22:24:31 10° W 22:30:21 32° SSW 22:36:23 10° SE night (unlit)
10 Aug - 00:24:23 10° SSW 00:25:35 10° SSW 00:26:32 10° S night (unlit)
10 Aug - 06:09:14 10° SSW 06:14:50 21° SSE 06:20:38 10° ESE daylight
10 Aug - 08:01:58 10° SW 08:09:46 64° SSE 08:17:23 10° ENE daylight
10 Aug - 09:57:00 10° W 10:04:15 41° NNW 10:11:08 10° NE daylight
10 Aug - 11:56:04 10° NW 11:59:18 13° NNW 12:02:12 10° N daylight
10 Aug - 17:44:44 10° N 17:47:52 14° NNE 17:51:11 10° NE daylight
10 Aug - 19:36:13 10° NW 19:42:25 50° NNE 19:48:46 10° ESE visible
10 Aug - 21:30:20 10° W 21:36:30 44° SSW 21:42:54 10° SE visible
10 Aug - 23:28:04 10° SW 23:31:22 14° SSW 23:34:32 10° S night (unlit)
11 Aug - 05:16:12 10° SSW 05:20:35 16° SSE 05:25:15 10° ESE visible
11 Aug - 07:08:14 10° SW 07:15:44 48° SSE 07:23:12 10° ENE daylight
11 Aug - 09:02:34 10° WSW 09:10:15 56° NNW 09:17:39 10° NE daylight
11 Aug - 11:00:08 10° WNW 11:05:06 18° NNW 11:09:43 10° NNE daylight
11 Aug - 16:53:23 10° NNE 16:53:47 10° NNE 16:54:25 10° NNE daylight
11 Aug - 18:42:51 10° NW 18:48:40 35° NNE 18:54:32 10° E visible
11 Aug - 20:36:21 10° WNW 20:42:44 62° SSW 20:49:18 10° SE visible
11 Aug - 22:32:52 10° WSW 22:37:16 18° SSW 22:41:38 10° SSE night (unlit)
12 Aug - 04:23:41 10° S 04:26:15 12° SSE 04:29:08 10° SE visible
12 Aug - 06:14:42 10° SW 06:21:40 36° SSE 06:28:44 10° E daylight
12 Aug - 08:08:22 10° WSW 08:16:16 76° NNW 08:23:59 10° NE daylight
12 Aug - 10:04:50 10° WNW 10:10:58 24° NNW 10:16:45 10° NNE daylight
12 Aug - 17:49:37 10° NNW 17:54:50 25° NNE 18:00:05 10° E daylight
12 Aug - 19:42:31 10° WNW 19:49:01 87° SSW 19:55:36 10° ESE visible
12 Aug - 21:38:07 10° WSW 21:43:18 24° SSW 21:48:30 10° SSE visible
13 Aug - 05:21:20 10° SSW 05:27:32 27° SSE 05:33:59 10° E visible
13 Aug - 07:14:23 10° WSW 07:22:16 81° SSE 07:30:06 10° ENE daylight
13 Aug - 09:09:56 10° W 09:16:52 33° NNW 09:23:31 10° NNE daylight
13 Aug - 11:10:37 10° NNW 11:12:15 11° NNW 11:13:34 10° N daylight
13 Aug - 16:56:32 10° NNW 17:00:54 19° NNE 17:05:21 10° ENE daylight
13 Aug - 18:48:52 10° NW 18:55:19 67° NNE 19:01:46 10° ESE visible
13 Aug - 20:43:40 10° W 20:49:25 33° SSW 20:55:14 10° SE visible
